Regional Weather Roundup
Issued by NWS Upton, NY

Current Version | Previous Version | Text Only | Print | Product List | Glossary On
Versions: 1 2 3 4 5 6 7 8 9 10 11 12 13 14 15 16 17 18 19 20 21 22 23 24 25 26 27 28 29 30 31 32 33 34 35 36 37 38 39 40 41 42 43 44 45 46 47 48 49 50
000
ASUS41 KOKX 262305
RWROKX

REGIONAL WEATHER ROUNDUP
NATIONAL WEATHER SERVICE NEW YORK NY
700 PM EDT THU MAY 26 2016

NOTE: "FAIR" INDICATES FEW OR NO CLOUDS BELOW 12,000 FEET WITH NO
SIGNIFICANT WEATHER AND/OR OBSTRUCTIONS TO VISIBILITY.

NYZ071-072-176-178-NJZ106-104-270000-
NEW YORK CITY METRO AREA


CITY           SKY/WX    TMP DP  RH WIND       PRES   REMARKS
CENTRAL PARK   PTSUNNY   83  44  25 VRB7      30.06S
LAGUARDIA APRT PTSUNNY   85  53  33 S14       30.02S
KENNEDY INTL   PTSUNNY   74  52  46 S15       30.05S
NEWARK/LIBERTY PTSUNNY   86  47  25 SE10      30.02S
BRNX BOT. GARD   N/A     82  46  28 S6        30.03F
TETERBORO      PTSUNNY   86  42  21 S10       30.01S
$$

NYZ177-179-078>081-270000-
LONG ISLAND NEW YORK

CITY           SKY/WX    TMP DP  RH WIND       PRES   REMARKS
FARMINGDALE    MOSUNNY   77  50  38 SW13      30.06R
ISLIP          PTSUNNY   76  52  43 SW7       30.06R
SHIRLEY        PTSUNNY   75  53  46 SW12      30.07S
RIVERHEAD        N/A     79  55  44 SW1       30.05R
WESTHAMPTON    MOSUNNY  N/A N/A N/A SW8       30.08R
EAST HAMPTON   FAIR      73  53  50 SW9       30.06S
MONTAUK POINT    N/A     69  57  65 S6        30.08R
$$

NYZ052-065-067-270000-
HUDSON VALLEY

CITY           SKY/WX    TMP DP  RH WIND       PRES   REMARKS
WHITE PLAINS   CLOUDY    79  49  34 S6        30.04S
NEWBURGH       MOSUNNY   84  59  42 VRB6      30.03S
MONTGOMERY     CLOUDY    85  57  38 SW8       30.00S
POUGHKEEPSIE   CLOUDY    88  57  34 S5        29.99F
ALBANY         CLOUDY    84  53  34 S5        30.00F
$$

NJZ001-105-106-008-010-013-015-019>022-104-270000-
NEW JERSEY

CITY           SKY/WX    TMP DP  RH WIND       PRES   REMARKS
NEWARK/LIBERTY PTSUNNY   86  47  25 SE10      30.02S
TETERBORO      PTSUNNY   86  42  21 S10       30.01S
CALDWELL       MOSUNNY   87  49  26 S7        30.02S
MORRISTOWN     PTSUNNY   86  52  30 SW7       30.02F
SOMERVILLE     SUNNY     85  55  35 S3        30.00F
SUSSEX         SUNNY     85  54  34 SW6       30.02F
ANDOVER          N/A     84  54  35 S5        30.03F
TRENTON        SUNNY     85  55  35 S8        30.01F
MILLVILLE      SUNNY     81  56  42 S9        30.04F
ATLANTIC CITY  SUNNY     78  56  46 S10       30.06S
WRIGHTSTOWN    NOT AVBL
TOMS RIVER     SUNNY     82  50  32 S8        30.04S
BELMAR         SUNNY     80  55  42 SE9       30.05S
$$

PAZ047>061-062-071-270000-
EASTERN PENNSYLVANIA

CITY           SKY/WX    TMP DP  RH WIND       PRES   REMARKS
PHILADELPHIA   MOSUNNY   86  56  35 S12       30.02F
ALLENTOWN      MOSUNNY   86  55  34 S10       30.01F
SCRANTON       CLOUDY    83  57  41 SW6       30.02F
$$

CTZ002-004>006-009-010-012-RIZ004-006-007-MAZ004-011-015-270000-
SOUTHERN NEW ENGLAND
 IN CT

CITY           SKY/WX    TMP DP  RH WIND       PRES   REMARKS
BRADLEY INTL   PTSUNNY   85  54  34 S13       30.01S
HARTFORD       MOSUNNY   87  56  34 S8        30.02R
DANBURY        CLOUDY    81  54  39 S7        30.05S
WTRBRY/OXFORD  PTSUNNY   81  54  39 S7        30.07S
BRIDGEPORT     PTSUNNY   77  55  46 SW7       30.04R
MERIDEN        MOSUNNY   82  58  43 S6        30.03S
NEW HAVEN      MOSUNNY   73  60  63 S7        30.04S
CHESTER        FAIR      79  55  44 S6        30.06R
GROTON         MOSUNNY   72  59  63 S3        30.05S
WILLIMANTIC    MOSUNNY   85  54  34 S8        30.04R

 IN RI

CITY           SKY/WX    TMP DP  RH WIND       PRES   REMARKS
PROVIDENCE     PTSUNNY   76  56  49 S8        30.04S
BLOCK ISLAND   MOSUNNY   67  55  65 SW14      30.07S
WESTERLY       MOSUNNY   76  52  43 S7        30.06S

 IN MA

CITY           SKY/WX    TMP DP  RH WIND       PRES   REMARKS
BOSTON         CLOUDY    63  56  78 NE12      30.05S
WORCESTER      CLOUDY    80  54  40 SW8       30.07R
WESTFIELD      MOSUNNY   83  57  41 S7        30.01S
PROVINCETOWN   PTSUNNY   65  56  72 SE12      30.09R
NANTUCKET      PTCLDY    62  54  74 SE5       30.10R
$$

ANZ330-335-338-340-345-350-353-355-270000-
COASTAL MARINE OBSERVATIONS


STATION/POSITION TIME  SKY/WX   TEMP    WIND        PRES    VSBY  WAVE
                                AIR SEA DIR/SP/G                  HT/PER
                 (UTC)          (F)     (DEG/KT/KT) (MB)    (MI)  (FT/S)
NY HARB ENTRANCE 2250            65 62  180/ 10/ 10 1017.4          2/ 7
20S FIRE ISLAND  2150            63 60  190/ 10/ 14 1017.7          2/ 8
GREAT SOUTH BAY  2200            69 69  210/ 12/ 14   N/A
23 SSW MONTAUK P 2250            61 58  210/ 10/ 12 1017.7          2/ 8
15 E BARNEGAT LI 2222               58                N/A           2/ 8
HUDSON CANYON    2150            60 58              1019.0          2/ 7
KINGS POINT      2200               61              1016.7
EXECUTION ROCKS  NOT AVBL
CENTRAL LI SOUND 2200            72     190/ 10/ 10   N/A           0
EASTERN LI SOUND 2200            61 53  150/  4/  6   N/A
ROBBINS REEF     2212            76                 1016.2
$$


>>>>>>>>>>>>>>>>>>>>>>>>>>>> KEY <<<<<<<<<<<<<<<<<<<<<<<<<<<
>                                                          <
>     SKY/WX - SKY CONDITION/PRESENT WEATHER               <
>     TMP    - TEMPERATURE IN FAHRENHEIT                   <
>     DP     - DEWPOINT IN FAHRENHEIT                      <
>     RH     - RELATIVE HUMIDITY IN PERCENT                <
>     WIND   - DIRECTION AND SPEED IN MPH                  <
>     PRES   - MEAN SEA LEVEL PRESSURE IN INCHES OF HG     <
>     WCI    - WIND CHILL INDEX                            <
>     VSB    - VISIBILITY IN MILES                         <
>     HX     - HEAT INDEX                                  <
>     TC     - TEMPERATURE IN CELSIUS                      <
>     VRB    - VARIABLE WIND DIRECTION                     <
>                                                          <
>>>>>>>>>>>>>>>>>>>>>>>>>>>> KEY <<<<<<<<<<<<<<<<<<<<<<<<<<<





USA.gov is the U.S. government's official web portal to all federal, state and local government web resources and services.